World > North America > United States > Ohio

Liberty Township, Ohio Regional Weather

Lat: 39.43N, Lon: 84.57W
Wx Zone: OHZ070Web Search
Liberty Township Weather Warning NWS WEATHER ALERT FOR THE LIBERTY TOWNSHIP, OH AREA - Issued: 417 PM EST Fri Nov 27 2020 Liberty Township Weather Warning  

Helpful Tip: Type the letters wx in the search engine next time you need to find us.

Feedback
Liberty Township Weather Map
UTC Time: 11/28/2020, 08:11
Your Time:

Liberty Township, OH Regional Weather

Expires:202011280900;;512658
ASUS41 KCLE 280810
RWRCLE
OHIO REGIONAL WEATHER ROUNDUP
NATIONAL WEATHER SERVICE CLEVELAND, OH
300 AM EST SAT NOV 28 2020

NOTE: "FAIR" INDICATES FEW OR NO CLOUDS BELOW 12,000 FEET WITH NO
SIGNIFICANT WEATHER AND/OR OBSTRUCTIONS TO VISIBILITY.


OHZ042-051>053-060>062-070>072-077>081-280900-
  SOUTHWEST OHIO
  
CITY           SKY/WX    TMP DP  RH WIND       PRES   REMARKS
CINC-COVINGTON CLOUDY    41  36  82 NW12      30.13R                  
CINC-LUNKEN    MOCLDY    43  37  79 NW7       30.15R                  
HAMILTON       CLOUDY    40  35  83 NW9       30.16R                  
DAYTON         MOCLDY    37  35  92 NW7       30.13R                  
WRIGHT-PAT AFB MOCLDY    38  32  79 NW8       30.12R                  
DAYTON GENERAL NOT AVBL                                               
WILMINGTON     CLEAR     39  35  86 NW7       30.11R                  
$$


SKY/WX - Weather  TMP - Temperature  DP - Dew Point  RH - Relative Humidity
WIND - Wind Direction/Speed PRES - Barometric Pressure VSB - Visibility
WCI - Wind Chill Index E13G22 Wind - East Wind 13 mph/Gusts of 22 mph